AFR305 ELLX-LFPG

Flight info

Callsign AFR305
Flight time 0h 34m
Altitude 19000
Route RAPOR Z157 VEDUS
Aircraft B38M/M-SDE1FGHILORVWXY/HB1

Departure

Time 2026-05-03 23:01
Airport Luxembourg-Findel International Airport (ELLX)

Arrival

Time 2026-05-03 23:35
Airport Charles de Gaulle International Airport (LFPG)
Time Latitude Longitude Altitude Speed Heading
2026-05-03 22:40 49.63349 6.21691 1241 ft 0 kts 330°
2026-05-03 22:52 49.63339 6.21700 1250 ft 2 kts 330°
2026-05-03 22:53 49.63325 6.21712 1248 ft 2 kts 332°
2026-05-03 22:53 49.63310 6.21723 1247 ft 2 kts 346°
2026-05-03 22:53 49.63297 6.21718 1249 ft 1 kts 58°
2026-05-03 22:53 49.63295 6.21714 1248 ft 0 kts 59°
2026-05-03 22:56 49.63300 6.21727 1249 ft 3 kts 59°
2026-05-03 22:56 49.63314 6.21778 1247 ft 7 kts 87°
2026-05-03 22:57 49.63329 6.21872 1239 ft 11 kts 70°
2026-05-03 22:57 49.63334 6.22014 1240 ft 16 kts 114°
2026-05-03 22:57 49.63254 6.22147 1246 ft 17 kts 125°
2026-05-03 22:57 49.63275 6.22280 1236 ft 16 kts 65°
2026-05-03 22:58 49.63336 6.22473 1228 ft 24 kts 60°
2026-05-03 22:58 49.63421 6.22705 1228 ft 26 kts 60°
2026-05-03 22:58 49.63516 6.22958 1228 ft 28 kts 60°
2026-05-03 22:58 49.63618 6.23232 1225 ft 31 kts 60°
2026-05-03 22:59 49.63668 6.23385 1225 ft 8 kts 84°
2026-05-03 22:59 49.63635 6.23456 1225 ft 10 kts 147°
2026-05-03 22:59 49.63567 6.23514 1226 ft 12 kts 158°
2026-05-03 22:59 49.63502 6.23461 1226 ft 13 kts 239°
2026-05-03 23:00 49.63448 6.23312 1224 ft 23 kts 240°
2026-05-03 23:00 49.63276 6.22854 1221 ft 90 kts 240°
2026-05-03 23:00 49.62870 6.21760 1229 ft 143 kts 240°
2026-05-03 23:00 49.62315 6.20294 1535 ft 164 kts 237°
2026-05-03 23:01 49.61709 6.18722 2122 ft 172 kts 237°
2026-05-03 23:01 49.61120 6.17136 2992 ft 174 kts 238°
2026-05-03 23:01 49.60490 6.15437 3679 ft 192 kts 238°
2026-05-03 23:01 49.59794 6.13553 4286 ft 212 kts 238°
2026-05-03 23:02 49.59030 6.11485 4953 ft 232 kts 238°
2026-05-03 23:02 49.58200 6.09240 5597 ft 250 kts 238°
2026-05-03 23:02 49.57313 6.06840 6339 ft 262 kts 238°
2026-05-03 23:02 49.56625 6.04248 7335 ft 266 kts 256°
2026-05-03 23:03 49.56658 6.01381 8332 ft 275 kts 278°
2026-05-03 23:03 49.57412 5.98612 9279 ft 285 kts 295°
2026-05-03 23:03 49.58389 5.95922 10178 ft 290 kts 294°
2026-05-03 23:03 49.59398 5.93146 10846 ft 304 kts 295°
2026-05-03 23:04 49.60325 5.90214 11456 ft 311 kts 281°
2026-05-03 23:04 49.60570 5.86902 12208 ft 314 kts 267°
2026-05-03 23:04 49.60626 5.83504 13148 ft 319 kts 268°
2026-05-03 23:04 49.60673 5.80054 14019 ft 324 kts 268°
2026-05-03 23:05 49.60710 5.76550 14886 ft 329 kts 267°
2026-05-03 23:05 49.60740 5.73002 15768 ft 333 kts 267°
2026-05-03 23:05 49.60766 5.69413 16638 ft 337 kts 267°
2026-05-03 23:05 49.60790 5.65771 17493 ft 342 kts 267°
2026-05-03 23:06 49.60812 5.62090 18347 ft 345 kts 267°
2026-05-03 23:06 49.60810 5.58393 18889 ft 344 kts 263°
2026-05-03 23:06 49.60645 5.54715 18976 ft 341 kts 263°
2026-05-03 23:06 49.60488 5.51068 18980 ft 340 kts 263°
2026-05-03 23:07 49.60337 5.47429 18980 ft 340 kts 263°
2026-05-03 23:07 49.60192 5.43833 18986 ft 340 kts 263°
2026-05-03 23:07 49.60025 5.40144 18986 ft 340 kts 263°
2026-05-03 23:07 49.59858 5.36559 18984 ft 340 kts 263°
2026-05-03 23:08 49.59688 5.32926 18978 ft 340 kts 263°
2026-05-03 23:08 49.59517 5.29290 18982 ft 340 kts 263°
2026-05-03 23:08 49.59347 5.25668 18979 ft 339 kts 263°
2026-05-03 23:08 49.59178 5.22038 18979 ft 340 kts 264°
2026-05-03 23:09 49.59204 5.18380 18977 ft 341 kts 268°
2026-05-03 23:09 49.59252 5.14726 18979 ft 341 kts 268°
2026-05-03 23:09 49.59289 5.11062 18983 ft 341 kts 268°
2026-05-03 23:09 49.59317 5.07408 18974 ft 340 kts 267°
2026-05-03 23:10 49.59342 5.03760 18975 ft 340 kts 267°
2026-05-03 23:10 49.59364 5.00120 18971 ft 340 kts 267°
2026-05-03 23:10 49.59385 4.96465 18974 ft 340 kts 267°
2026-05-03 23:10 49.59404 4.92828 18982 ft 340 kts 267°
2026-05-03 23:11 49.59422 4.89177 18971 ft 340 kts 267°
2026-05-03 23:11 49.59439 4.85587 18972 ft 339 kts 267°
2026-05-03 23:11 49.59455 4.81952 18970 ft 339 kts 267°
2026-05-03 23:11 49.59471 4.78315 18975 ft 339 kts 268°
2026-05-03 23:12 49.59491 4.74672 18975 ft 339 kts 268°
2026-05-03 23:12 49.59511 4.71037 18977 ft 339 kts 268°
2026-05-03 23:12 49.59530 4.67407 18977 ft 338 kts 268°
2026-05-03 23:12 49.59547 4.63782 18975 ft 338 kts 268°
2026-05-03 23:13 49.59563 4.60158 18975 ft 338 kts 268°
2026-05-03 23:13 49.59578 4.56577 18972 ft 338 kts 268°
2026-05-03 23:13 49.59591 4.52914 18970 ft 338 kts 268°
2026-05-03 23:13 49.59603 4.49344 18975 ft 337 kts 268°
2026-05-03 23:14 49.59615 4.45729 18967 ft 337 kts 268°
2026-05-03 23:14 49.59625 4.42109 18972 ft 337 kts 268°
2026-05-03 23:14 49.59634 4.38493 18970 ft 337 kts 268°
2026-05-03 23:14 49.59642 4.34882 18971 ft 337 kts 267°
2026-05-03 23:15 49.59648 4.32483 18970 ft 337 kts 267°
2026-05-03 23:15 49.59653 4.28867 18972 ft 337 kts 267°
2026-05-03 23:15 49.59659 4.25259 18965 ft 337 kts 267°
2026-05-03 23:15 49.59663 4.21644 18973 ft 337 kts 267°
2026-05-03 23:16 49.59665 4.18040 18968 ft 337 kts 267°
2026-05-03 23:16 49.59667 4.14426 18966 ft 337 kts 267°
2026-05-03 23:16 49.59669 4.10814 18963 ft 337 kts 267°
2026-05-03 23:16 49.59407 4.07271 18955 ft 331 kts 250°
2026-05-03 23:17 49.58407 4.04099 18969 ft 329 kts 237°
2026-05-03 23:17 49.57261 4.01037 18960 ft 330 kts 244°
2026-05-03 23:17 49.56440 3.97762 18962 ft 331 kts 246°
2026-05-03 23:17 49.55585 3.94473 18966 ft 331 kts 246°
2026-05-03 23:18 49.54713 3.91196 18962 ft 331 kts 245°
2026-05-03 23:18 49.53829 3.87925 18961 ft 330 kts 245°
2026-05-03 23:18 49.52942 3.84675 18967 ft 324 kts 245°
2026-05-03 23:18 49.52086 3.81562 18971 ft 310 kts 245°
2026-05-03 23:19 49.51258 3.78555 18863 ft 303 kts 245°
2026-05-03 23:19 49.50432 3.75571 18596 ft 303 kts 244°
2026-05-03 23:19 49.49604 3.72583 18262 ft 303 kts 244°
2026-05-03 23:19 49.48776 3.69601 17865 ft 303 kts 244°
2026-05-03 23:20 49.47949 3.66628 17480 ft 301 kts 244°
2026-05-03 23:20 49.47128 3.63680 17106 ft 299 kts 244°
2026-05-03 23:20 49.46312 3.60756 16740 ft 295 kts 244°
2026-05-03 23:20 49.45508 3.57872 16372 ft 292 kts 244°
2026-05-03 23:21 49.44663 3.55064 15993 ft 286 kts 234°
2026-05-03 23:21 49.43312 3.52902 15648 ft 278 kts 215°
2026-05-03 23:21 49.41719 3.51261 15348 ft 275 kts 212°
2026-05-03 23:21 49.40118 3.49661 15057 ft 275 kts 212°
2026-05-03 23:22 49.36938 3.46472 14313 ft 272 kts 212°
2026-05-03 23:22 49.35362 3.44880 13949 ft 271 kts 212°
2026-05-03 23:22 49.33795 3.43291 13556 ft 269 kts 212°
2026-05-03 23:23 49.32232 3.41711 13154 ft 267 kts 212°
2026-05-03 23:23 49.30677 3.40137 12744 ft 266 kts 212°
2026-05-03 23:23 49.29138 3.38583 12342 ft 265 kts 212°
2026-05-03 23:23 49.27602 3.37038 11961 ft 263 kts 212°
2026-05-03 23:24 49.26077 3.35508 11570 ft 262 kts 212°
2026-05-03 23:24 49.24556 3.33987 11181 ft 260 kts 212°
2026-05-03 23:24 49.23044 3.32478 10828 ft 258 kts 212°
2026-05-03 23:24 49.21540 3.30978 10462 ft 257 kts 212°
2026-05-03 23:25 49.20044 3.29493 10104 ft 256 kts 212°
2026-05-03 23:25 49.18552 3.28013 9749 ft 254 kts 212°
2026-05-03 23:25 49.17067 3.26542 9350 ft 253 kts 212°
2026-05-03 23:25 49.15593 3.25086 8983 ft 251 kts 212°
2026-05-03 23:26 49.14129 3.23645 8599 ft 250 kts 212°
2026-05-03 23:26 49.12666 3.22204 8211 ft 249 kts 212°
2026-05-03 23:26 49.11227 3.20787 7879 ft 248 kts 212°
2026-05-03 23:26 49.09778 3.19361 7504 ft 247 kts 212°
2026-05-03 23:27 49.08464 3.17703 7126 ft 248 kts 232°
2026-05-03 23:27 49.07746 3.15318 6776 ft 251 kts 251°
2026-05-03 23:27 49.07291 3.12749 6427 ft 251 kts 251°
2026-05-03 23:27 49.06847 3.10182 6043 ft 250 kts 252°
2026-05-03 23:28 49.06409 3.07618 5708 ft 248 kts 252°
2026-05-03 23:28 49.05984 3.05107 5345 ft 247 kts 252°
2026-05-03 23:28 49.05557 3.02566 5030 ft 245 kts 252°
2026-05-03 23:28 49.05137 3.00072 4997 ft 242 kts 252°
2026-05-03 23:29 49.04788 2.97559 4993 ft 248 kts 260°
2026-05-03 23:29 49.04646 2.94923 4997 ft 249 kts 263°
2026-05-03 23:29 49.04585 2.92287 4943 ft 245 kts 264°
2026-05-03 23:29 49.04493 2.89689 4646 ft 240 kts 262°
2026-05-03 23:30 49.04365 2.87198 4344 ft 233 kts 262°
2026-05-03 23:30 49.04236 2.84803 4040 ft 222 kts 262°
2026-05-03 23:30 49.04110 2.82495 3749 ft 213 kts 262°
2026-05-03 23:30 49.03991 2.80310 3473 ft 205 kts 262°
2026-05-03 23:31 49.03876 2.78198 3216 ft 194 kts 262°
2026-05-03 23:31 49.03767 2.76201 2957 ft 180 kts 262°
2026-05-03 23:31 49.03670 2.74425 2752 ft 155 kts 262°
2026-05-03 23:31 49.03587 2.72900 2559 ft 135 kts 262°
2026-05-03 23:32 49.03508 2.71478 2374 ft 135 kts 262°
2026-05-03 23:32 49.03431 2.70050 2195 ft 135 kts 262°
2026-05-03 23:32 49.03354 2.68644 2012 ft 135 kts 262°
2026-05-03 23:32 49.03277 2.67219 1833 ft 134 kts 262°
2026-05-03 23:33 49.03197 2.65797 1602 ft 135 kts 262°
2026-05-03 23:33 49.03113 2.64368 1374 ft 135 kts 262°
2026-05-03 23:33 49.03042 2.62950 1158 ft 138 kts 263°
2026-05-03 23:33 49.02965 2.61463 1004 ft 142 kts 263°
2026-05-03 23:34 49.02888 2.59961 852 ft 140 kts 263°
2026-05-03 23:34 49.02806 2.58506 673 ft 139 kts 263°
2026-05-03 23:34 49.02719 2.57031 505 ft 141 kts 264°
2026-05-03 23:34 49.02636 2.55537 363 ft 138 kts 265°
2026-05-03 23:35 49.02572 2.54329 356 ft 90 kts 264°
2026-05-03 23:35 49.02535 2.53686 366 ft 32 kts 262°
2026-05-03 23:35 49.02475 2.53397 362 ft 27 kts 244°
2026-05-03 23:35 49.02390 2.53211 359 ft 15 kts 234°
2026-05-03 23:36 49.02361 2.53145 359 ft 0 kts 236°
2026-05-03 23:36 49.02351 2.53124 359 ft 4 kts 235°
2026-05-03 23:37 49.02325 2.53074 363 ft 8 kts 225°
2026-05-03 23:37 49.02270 2.53015 359 ft 11 kts 201°
2026-05-03 23:37 49.02180 2.53004 358 ft 14 kts 176°
2026-05-03 23:37 49.02070 2.53019 357 ft 18 kts 174°
2026-05-03 23:38 49.01936 2.53036 357 ft 21 kts 175°
2026-05-03 23:38 49.01846 2.53142 357 ft 19 kts 92°
2026-05-03 23:38 49.01857 2.53358 357 ft 22 kts 83°
2026-05-03 23:38 49.01870 2.53583 358 ft 12 kts 85°
2026-05-03 23:39 49.01879 2.53733 357 ft 16 kts 85°
2026-05-03 23:39 49.01886 2.53870 359 ft 12 kts 85°
2026-05-03 23:39 49.01894 2.54014 359 ft 14 kts 85°
2026-05-03 23:39 49.01861 2.54123 361 ft 13 kts 150°
2026-05-03 23:40 49.01813 2.54247 363 ft 16 kts 82°
2026-05-03 23:40 49.01826 2.54431 358 ft 18 kts 84°
2026-05-03 23:40 49.01836 2.54641 358 ft 22 kts 86°
2026-05-03 23:40 49.01849 2.54879 358 ft 21 kts 85°
2026-05-03 23:41 49.01914 2.55075 361 ft 23 kts 21°
2026-05-03 23:41 49.02024 2.54973 360 ft 22 kts 287°
2026-05-03 23:41 49.02026 2.54773 361 ft 19 kts 263°
2026-05-03 23:41 49.02013 2.54561 357 ft 22 kts 266°
2026-05-03 23:42 49.02005 2.54409 361 ft 14 kts 264°
2026-05-03 23:42 49.02002 2.54343 363 ft 1 kts 265°
2026-05-03 23:42 49.02001 2.54332 363 ft 3 kts 265°
2026-05-03 23:42 49.01998 2.54283 360 ft 7 kts 265°
2026-05-03 23:43 49.01984 2.54194 360 ft 11 kts 235°
2026-05-03 23:43 49.01903 2.54131 361 ft 16 kts 181°
2026-05-03 23:43 49.01875 2.54133 357 ft 3 kts 176°
2026-05-03 23:43 49.01858 2.54134 357 ft 1 kts 177°
2026-05-03 23:44 49.01855 2.54134 357 ft 0 kts 176°
2026-05-03 23:44 49.01837 2.54143 357 ft 7 kts 152°
2026-05-03 23:44 49.01809 2.54235 358 ft 12 kts 92°
2026-05-03 23:44 49.01810 2.54269 359 ft 3 kts 83°
2026-05-03 23:45 49.01816 2.54315 365 ft 6 kts 79°
2026-05-03 23:45 49.01826 2.54429 358 ft 17 kts 83°
2026-05-03 23:45 49.01839 2.54679 358 ft 29 kts 85°
2026-05-03 23:45 49.01857 2.55009 358 ft 33 kts 85°
2026-05-03 23:46 49.01875 2.55363 366 ft 35 kts 85°
2026-05-03 23:46 49.01889 2.55612 365 ft 36 kts 85°
2026-05-03 23:47 49.01896 2.55731 359 ft 37 kts 84°
2026-05-03 23:48 49.01916 2.56128 358 ft 33 kts 87°
2026-05-03 23:48 49.01934 2.56451 363 ft 32 kts 86°
2026-05-03 23:48 49.01954 2.56798 358 ft 34 kts 86°
2026-05-03 23:48 49.01974 2.57164 358 ft 36 kts 87°
2026-05-03 23:49 49.01991 2.57536 364 ft 24 kts 86°
2026-05-03 23:49 49.01992 2.57774 362 ft 21 kts 102°
2026-05-03 23:49 49.01901 2.57957 364 ft 24 kts 155°
2026-05-03 23:49 49.01729 2.57999 359 ft 26 kts 175°
2026-05-03 23:50 49.01537 2.58023 360 ft 29 kts 174°
2026-05-03 23:50 49.01400 2.58041 358 ft 30 kts 176°
2026-05-03 23:50 49.01107 2.58079 358 ft 33 kts 176°
2026-05-03 23:50 49.00953 2.58095 365 ft 7 kts 175°
2026-05-03 23:51 49.00893 2.58104 357 ft 11 kts 174°
2026-05-03 23:51 49.00822 2.58107 363 ft 7 kts 207°
2026-05-03 23:51 49.00813 2.58096 361 ft 3 kts 213°
2026-05-03 23:51 49.00778 2.58074 360 ft 8 kts 200°
2026-05-03 23:52 49.00721 2.58082 360 ft 10 kts 140°
2026-05-03 23:52 49.00703 2.58085 361 ft 3 kts 202°
2026-05-03 23:52 49.00695 2.58058 360 ft 1 kts 279°
2026-05-03 23:52 49.00699 2.58056 361 ft 0 kts 333°
2026-05-03 23:53 49.00705 2.58060 357 ft 0 kts 27°
2026-05-03 23:53 49.00707 2.58071 357 ft 3 kts 75°
2026-05-03 23:53 49.00723 2.58120 361 ft 5 kts 31°
2026-05-03 23:53 49.00747 2.58115 360 ft 2 kts 321°
2026-05-03 23:54 49.00749 2.58101 364 ft 2 kts 276°
2026-05-03 23:54 49.00742 2.58057 360 ft 6 kts 251°
2026-05-03 23:54 49.00717 2.58001 359 ft 0 kts 231°
2026-05-03 23:56 49.04290 2.85813 4207 ft 227 kts 262°